Terug naar catalogus

ATLAS 5 CENTAUR DEB

LostHEO
NORAD 47120·DEBRIS·🇺🇸 United States

Gelanceerd Sep 17, 2014 vanaf Cape Canaveral Space Force Station

Loading…

Volgende Passages (komende 24 uur)

TLE

VerouderdSource: Space-Track

Epoch: Aug 15, 2025, 02:13 UTC

1 47120U 14055DF  25227.09303237  .00000007  00000-0  00000+0 0  9990
2 47120  19.1922 207.3752 4814195  45.4934 345.0201  1.73007169 30661

Volg ATLAS 5 CENTAUR DEB in realtime met AllMySat

Download on the App Store